Weather History for Hays, KS

Change the Weather History Date:

Saturday, March 23, 2013

  Actual Average Record
Temperature  
Mean Temperature 30 °F -  
Max Temperature 33 °F 56 °F 80 °F (2004)
Min Temperature 26 °F 31 °F 12 °F (2014)
Degree Days  
Heating Degree Days 36    
Moisture  
Dew Point 26 °F    
Average Humidity 85    
Maximum Humidity 93    
Minimum Humidity 75    
Precipitation  
Precipitation 0.00 in - - ()
Sea Level Pressure  
Sea Level Pressure 29.94 in    
Wind  
Wind Speed 15 mph (NE)    
Max Wind Speed 26 mph    
Max Gust Speed 34 mph    
Visibility 4 miles    
Events      
Averages and records for this station are not official NWS values.
T = Trace of Precipitation, MM = Missing Value Source: NWS Daily Summary

Daily Weather History Graph

Daily Weather History Graph

Search for Another Location

Airport:

Trip Planner

Search our weather history database for the weather conditions in past years. The results will help you decide how hot, cold, wet, or windy it might be!

Date:

Astronomy

Mar. 23, 2013 Rise Set
Actual Time 7:35 AM CDT 7:52 PM CDT
Civil Twilight 7:08 AM CDT 8:18 PM CDT
Nautical Twilight 6:37 AM CDT 8:50 PM CDT
Astronomical Twilight 6:05 AM CDT 9:22 PM CDT
Moon 4:22 PM CDT (3/23) 5:10 AM CDT (3/23)
Length of Visible Light 13h 10m
Length of Day
12h 16m
Waxing Gibbous, 85% of the Moon is Illuminated
Mar 23
Waxing Gibbous
Mar 27
Full
Apr 2
Last Quarter
Apr 10
New
Apr 18
First Quarter

Hourly Weather History & Observations

Time (CDT) Temp. Windchill Dew Point Humidity Pressure Visibility Wind Dir Wind Speed Gust Speed Precip Events Conditions
12:15 AM 33.8 °F 25.8 °F 26.6 °F 75% 29.93 in 8.0 mi East 10.4 mph - N/A   Mostly Cloudy
12:35 AM 33.8 °F 24.8 °F 28.4 °F 81% 29.92 in 8.0 mi East 12.7 mph - N/A   Overcast
12:55 AM 32.0 °F 20.8 °F 26.6 °F 80% 29.92 in 8.0 mi East 17.3 mph - N/A   Overcast
1:15 AM 32.0 °F 23.0 °F 26.6 °F 80% 29.93 in 7.0 mi East 11.5 mph - N/A   Overcast
1:35 AM 32.0 °F 23.0 °F 26.6 °F 80% 29.91 in 7.0 mi East 11.5 mph - N/A   Overcast
1:55 AM 32.0 °F 21.6 °F 26.6 °F 80% 29.89 in 6.0 mi East 15.0 mph - N/A   Overcast
2:15 AM 32.0 °F 23.6 °F 26.6 °F 80% 29.92 in 7.0 mi East 10.4 mph - N/A   Overcast
2:35 AM 32.0 °F 21.2 °F 26.6 °F 80% 29.91 in 7.0 mi East 16.1 mph - N/A   Overcast
2:55 AM 32.0 °F 22.1 °F 26.6 °F 80% 29.94 in 7.0 mi East 13.8 mph - N/A   Overcast
3:15 AM 30.2 °F 20.2 °F 26.6 °F 86% 29.93 in 8.0 mi East 12.7 mph - N/A   Overcast
3:35 AM 32.0 °F 22.5 °F 26.6 °F 80% 29.92 in 7.0 mi ENE 12.7 mph - N/A   Overcast
3:55 AM 32.0 °F 23.6 °F 26.6 °F 80% 29.92 in 7.0 mi East 10.4 mph - N/A   Overcast
4:15 AM 32.0 °F 22.5 °F 26.6 °F 80% 29.90 in 8.0 mi East 12.7 mph - N/A   Overcast
4:35 AM 32.0 °F 22.5 °F 28.4 °F 87% 29.90 in 7.0 mi East 12.7 mph - N/A   Overcast
4:55 AM 30.2 °F 20.2 °F 26.6 °F 86% 29.90 in 10.0 mi ENE 12.7 mph - N/A   Overcast
5:15 AM 30.2 °F 19.3 °F 26.6 °F 86% 29.89 in 10.0 mi ENE 15.0 mph - N/A   Overcast
5:35 AM 30.2 °F 19.8 °F 26.6 °F 86% 29.89 in 8.0 mi East 13.8 mph - N/A   Overcast
5:55 AM 30.2 °F 20.2 °F 26.6 °F 86% 29.90 in 8.0 mi East 12.7 mph - N/A   Overcast
6:15 AM 30.2 °F 19.3 °F 26.6 °F 86% 29.89 in 8.0 mi ENE 15.0 mph - N/A   Overcast
6:35 AM 30.2 °F 19.3 °F 26.6 °F 86% 29.90 in 8.0 mi ENE 15.0 mph - N/A   Overcast
6:55 AM 30.2 °F 21.3 °F 26.6 °F 86% 29.94 in 7.0 mi NE 10.4 mph - N/A   Overcast
7:15 AM 30.2 °F 18.9 °F 26.6 °F 86% 29.94 in 4.0 mi NE 16.1 mph - N/A   Overcast
7:35 AM 30.2 °F 20.8 °F 26.6 °F 86% 29.94 in 5.0 mi ENE 11.5 mph - N/A   Overcast
7:55 AM 30.2 °F 21.3 °F 26.6 °F 86% 29.94 in 4.0 mi ENE 10.4 mph - N/A   Overcast
8:15 AM 30.2 °F 18.9 °F 26.6 °F 86% 29.95 in 4.0 mi ENE 16.1 mph - N/A   Overcast
8:35 AM 30.2 °F 19.3 °F 26.6 °F 86% 29.95 in 4.0 mi ENE 15.0 mph - N/A   Overcast
8:55 AM 30.2 °F 19.3 °F 26.6 °F 86% 29.95 in 5.0 mi ENE 15.0 mph - N/A   Overcast
9:15 AM 30.2 °F 18.9 °F 26.6 °F 86% 29.95 in 5.0 mi ENE 16.1 mph - N/A   Overcast
9:35 AM 30.2 °F 20.2 °F 26.6 °F 86% 29.95 in 4.0 mi ENE 12.7 mph - N/A   Overcast
9:55 AM 30.2 °F 19.3 °F 26.6 °F 86% 29.94 in 5.0 mi ENE 15.0 mph - N/A   Overcast
10:15 AM 30.2 °F 19.3 °F 26.6 °F 86% 29.95 in 5.0 mi ENE 15.0 mph - N/A   Overcast
10:35 AM 30.2 °F 20.2 °F 26.6 °F 86% 29.95 in 3.0 mi ENE 12.7 mph - N/A   Overcast
10:55 AM 30.2 °F 19.8 °F 26.6 °F 86% 29.95 in 2.0 mi NE 13.8 mph - N/A   Overcast
11:15 AM 30.2 °F 20.2 °F 26.6 °F 86% 29.95 in 1.0 mi NE 12.7 mph - N/A   Overcast
11:35 AM 30.2 °F 19.3 °F 26.6 °F 86% 29.95 in 0.8 mi NE 15.0 mph - N/A   Overcast
11:55 AM 30.2 °F 20.2 °F 26.6 °F 86% 29.95 in 1.2 mi NE 12.7 mph - N/A   Overcast
12:15 PM 30.2 °F 18.9 °F 26.6 °F 86% 29.95 in 2.0 mi NE 16.1 mph - N/A   Overcast
12:35 PM 30.2 °F 19.3 °F 26.6 °F 86% 29.94 in 3.0 mi NE 15.0 mph - N/A   Overcast
12:55 PM 30.2 °F 17.4 °F 26.6 °F 86% 29.93 in 2.5 mi NE 20.7 mph - N/A   Overcast
1:15 PM 30.2 °F 18.9 °F 26.6 °F 86% 29.93 in 3.0 mi NE 16.1 mph - N/A   Overcast
1:35 PM 30.2 °F 18.5 °F 26.6 °F 86% 29.93 in 3.0 mi NE 17.3 mph 20.7 mph N/A   Overcast
1:55 PM 28.4 °F 15.8 °F 26.6 °F 93% 29.93 in 4.0 mi NE 18.4 mph - N/A   Overcast
2:15 PM 28.4 °F 15.8 °F 24.8 °F 86% 29.93 in 3.0 mi NNE 18.4 mph - N/A   Overcast
2:35 PM 28.4 °F 15.8 °F 26.6 °F 93% 29.92 in 3.0 mi NE 18.4 mph 21.9 mph N/A   Overcast
2:55 PM 30.2 °F 18.5 °F 26.6 °F 86% 29.92 in 3.0 mi NNE 17.3 mph - N/A   Overcast
3:15 PM 30.2 °F 19.3 °F 26.6 °F 86% 29.92 in 2.5 mi NNE 15.0 mph - N/A   Overcast
3:35 PM 30.2 °F 17.4 °F 26.6 °F 86% 29.92 in 2.0 mi NNE 20.7 mph - N/A   Overcast
3:55 PM 30.2 °F 17.8 °F 26.6 °F 86% 29.90 in 2.5 mi NE 19.6 mph 27.6 mph N/A   Mostly Cloudy
4:15 PM 30.2 °F 17.8 °F 26.6 °F 86% 29.91 in 2.5 mi NNE 19.6 mph - N/A   Overcast
4:35 PM 30.2 °F 18.1 °F 26.6 °F 86% 29.90 in 4.0 mi NNE 18.4 mph 26.5 mph N/A   Overcast
4:55 PM 30.2 °F 17.1 °F 26.6 °F 86% 29.92 in 7.0 mi NNE 21.9 mph 26.5 mph N/A   Overcast
5:15 PM 30.2 °F 17.8 °F 26.6 °F 86% 29.94 in 4.0 mi NNE 19.6 mph - N/A   Overcast
5:35 PM 30.2 °F 19.3 °F 26.6 °F 86% 29.94 in 2.0 mi North 15.0 mph 21.9 mph N/A   Overcast
5:55 PM 30.2 °F 17.8 °F 26.6 °F 86% 29.94 in 1.2 mi NNE 19.6 mph - N/A   Overcast
6:15 PM 30.2 °F 17.1 °F 26.6 °F 86% 29.94 in 1.5 mi NNE 21.9 mph - N/A   Overcast
6:35 PM 30.2 °F 17.4 °F 26.6 °F 86% 29.95 in 1.8 mi NNE 20.7 mph 24.2 mph N/A   Overcast
6:55 PM 30.2 °F 18.5 °F 26.6 °F 86% 29.95 in 2.5 mi NNE 17.3 mph 25.3 mph N/A   Overcast
7:15 PM 30.2 °F 18.1 °F 26.6 °F 86% 29.95 in 3.0 mi NNE 18.4 mph 25.3 mph N/A   Mostly Cloudy
7:35 PM 30.2 °F 17.4 °F 26.6 °F 86% 29.95 in 6.0 mi NNE 20.7 mph 25.3 mph N/A   Overcast
7:55 PM 30.2 °F 16.8 °F 26.6 °F 86% 29.93 in 4.0 mi NNE 23.0 mph - N/A   Mostly Cloudy
8:15 PM 30.2 °F 15.9 °F 26.6 °F 86% 29.92 in 2.5 mi NNE 26.5 mph 34.5 mph N/A   Overcast
8:35 PM 30.2 °F 16.8 °F 26.6 °F 86% 29.97 in 3.0 mi North 23.0 mph 27.6 mph N/A   Overcast
8:55 PM 30.2 °F 17.4 °F 26.6 °F 86% 30.00 in 3.0 mi North 20.7 mph 25.3 mph N/A   Overcast
9:15 PM 30.2 °F 18.1 °F 26.6 °F 86% 30.01 in 3.0 mi NNE 18.4 mph 25.3 mph N/A   Overcast
9:35 PM 28.4 °F 15.1 °F 24.8 °F 86% 30.02 in 1.8 mi North 20.7 mph - N/A   Overcast
9:55 PM 28.4 °F 14.1 °F 24.8 °F 86% 30.01 in 1.2 mi North 24.2 mph - N/A   Overcast
10:15 PM 28.4 °F 15.1 °F 24.8 °F 86% 30.03 in 0.8 mi North 20.7 mph 25.3 mph N/A   Overcast
10:35 PM 28.4 °F 13.5 °F 24.8 °F 86% 30.04 in 0.8 mi North 26.5 mph 29.9 mph N/A   Overcast
10:55 PM 26.6 °F 12.4 °F 24.8 °F 93% 30.04 in 1.2 mi North 21.9 mph 28.8 mph N/A   Overcast
11:15 PM 26.6 °F 12.7 °F 24.8 °F 93% 30.05 in 1.2 mi North 20.7 mph 24.2 mph N/A   Overcast
11:35 PM 26.6 °F 12.0 °F 23.0 °F 86% 30.06 in 1.0 mi North 23.0 mph - N/A   Overcast
11:55 PM 26.6 °F 12.0 °F 23.0 °F 86% 30.06 in 1.2 mi North 23.0 mph - N/A   Overcast